Location: Del Amo
(33.8464°N, 118.2104°W)
Time: 01:25:00
(UTC+00:00)

SR - Pass Details

Date: 21 September 2024
Orbit: 578 x 855 km, 66.7° (Epoch: 02 October)

Event Time Altitude Azimuth Distance (km) Brightness Sun altitude
Rises 18:00:50 0° 170° (S) 2,838 ? 48.4°
Reaches altitude 10° 18:03:40 10° 152° (SSE) 1,911 ? 48.8°
Maximum altitude 18:06:35 18° 108° (ESE) 1,438 ? 49.2°
Drops below altitude 10° 18:09:29 10° 64° (ENE) 1,890 ? 49.6°
Sets 18:12:15 0° 45° (NE) 2,795 ? 49.9°
